User: anonymous   Login
Location: Unspecified
(0.0000°N, 0.0000°E)
Time: 22:12:55
(UTC+00:00)
Language:

STARLINK-2334 - Orbit

View from above orbital plane
View from above orbital plane
View from above satellite
View from above satellite

Ground track
Ground track

The orbit is defined by the following mean orbital elements,

1 47792U          26145.56596161 +.00000000 +00000-0 +55900-4 0 00002
2 47792  53.1582 241.5858 0001304  71.3271 288.7872 15.31704130    04
Epoch (UTC): 25 May 2026 13:34:59
Eccentricity: 0.0001304
inclination: 53.1582°
perigee height: 470 km
apogee height: 472 km
right ascension of ascending node: 241.5858°
argument of perigee: 71.3271°
revolutions per day: 15.31704130
mean anomaly at epoch: 288.7872°

The dashed part of the orbit path shows where the satellite is in the earth's shadow,  

DLR